Location: Brno
(49.2000°N, 16.6330°E)
Time: 14:10:41
(UTC+02:00)

Meteor 1-4 Rocket - Visible Passes

Search period start: 30 July 2015 00:00
Search period end: 09 August 2015 00:00
Orbit: 461 x 520 km, 81.2° (Epoch: 29 July)

Date Brightness Start Highest point End Pass type
(mag) Time Alt. Az. Time Alt. Az. Time Alt. Az.
30 Jul 2.7 22:10:41 10° N 22:14:35 77° ENE 22:17:08 21° SSE visible
30 Jul 5.6 23:48:46 10° WNW 23:49:23 10° W 23:49:48 10° W visible
31 Jul 3.0 21:47:56 10° N 21:51:45 52° ENE 21:54:41 16° SSE visible
31 Jul 5.3 23:24:30 10° NW 23:26:42 14° W 23:28:47 10° WSW visible
01 Aug 3.5 21:25:14 10° N 21:28:52 37° ENE 21:32:15 11° SE visible
01 Aug 4.9 23:01:07 10° NW 23:04:01 20° W 23:06:45 10° SW visible
02 Aug 4.0 21:02:37 10° N 21:05:56 27° ENE 21:09:16 10° SE visible
02 Aug 4.5 22:37:56 10° NNW 22:41:17 28° W 22:44:20 11° SSW visible
03 Aug 3.9 22:14:53 10° NNW 22:18:32 39° W 22:21:57 11° SSW visible
04 Aug 3.3 21:51:56 10° NNW 21:55:46 57° W 21:59:31 10° S visible
05 Aug 2.8 21:29:03 10° NNW 21:32:57 83° WSW 21:36:47 10° S visible
06 Aug 2.7 21:06:14 10° N 21:10:06 68° ENE 21:13:55 10° SSE visible
06 Aug 5.6 22:43:35 10° WNW 22:44:56 11° W 22:46:07 10° WSW visible
07 Aug 5.4 22:19:46 10° NW 22:22:14 16° W 22:24:33 10° SW visible
08 Aug 5.0 21:56:27 10° NW 21:59:30 22° W 22:02:26 10° SW visible
